Location: Kellogg
(38.0159°N, 90.0546°W)
Time: 02:58:58
(UTC+00:00)

SR - Pass Details

Date: 20 September 2024
Orbit: 577 x 855 km, 66.7° (Epoch: 10 October)

Event Time Altitude Azimuth Distance (km) Brightness Sun altitude
Rises 02:48:16 0° 335° (NNW) 2,974 ? -32.3°
Reaches altitude 10° 02:50:30 10° 339° (NNW) 2,100 ? -32.6°
Enters shadow 02:52:27 25° 346° (NNW) 1,390 ? -33.0°
Maximum altitude 02:55:14 63° 60° (ENE) 794 - -33.4°
Drops below altitude 10° 03:00:22 10° 142° (SE) 2,271 - -34.3°
Sets 03:02:52 0° 145° (SE) 3,238 - -34.7°
